Location: Central Falls
(41.8900°N, 71.3929°W)
Time: 11:57:24
(UTC+00:00)

A-11 Canister half - Pass Details

Date: 14 December 2023
Orbit: 1512 x 1687 km, 47.2° (Epoch: 20 February)

Event Time Altitude Azimuth Distance (km) Brightness Sun altitude
Rises 10:40:29 0° 291° (WNW) 4,864 - -15.2°
Reaches altitude 10° 10:44:40 10° 276° (W) 3,900 - -14.4°
Exits shadow 10:46:30 14° 267° (W) 3,572 10.3 -14.1°
Maximum altitude 10:51:16 20° 234° (SW) 3,182 10.3 -13.3°
Drops below altitude 10° 10:57:59 10° 192° (SSW) 3,939 11.3 -12.1°
Sets 11:02:17 0° 177° (S) 4,927 12.0 -11.4°
